Погода в Татарских Ямалах

Россия / Республика Татарстан     55°49′41″N   53°45′42″E
В апреле 2022 года жителям России запретили посещать сайт meteo.paraplan.net по решению Генеральной прокуратуры. Аудитория сайта уменьшилась в 10 раз. Владельцы сайта не видят смысла в поддержке погодного сервера в таких условиях. Сайт будет закрыт в октябре.
темп.,
°C
ветер,
м/с
пор.,
м/с
влажн.,
%
обл.,
%
осадки,
мм/ч
давл.,
гПа
погр.,
м
30 сентября, пт
пт3000:00+4вюв51088100 0.0 1021466
03:00+4вюв51088100 0.0 1022458
06:00+4вюв4889100 0.0 1024409
09:00+5вюв4785100 0.0 1025445
12:00+7юв5780100 0.0 1026604
15:00+7юв577873 0.0 1027615
18:00+5вюв49865 0.0 1028314
21:00+4юв38905 0.0 1029230
1 октября, сб
сб100:00+4вюв379046 0.0 1028190
03:00+4юв478580 0.0 1028257
06:00+5юв3785100 0.0 1028270
09:00+8ююв457299 0.0 1028478
12:00+12ююв56588 0.0 1026823
15:00+13ююв465847 0.0 1025949
18:00+9ююв487236 0.0 1025149
21:00+7ююв5107182 0.0 1024231
2 октября, вс
вс200:00+6ююв497187 0.0 1023192
03:00+6юв497475 0.0 1022176
06:00+6ююв4117186 0.0 1021244
09:00+12ю61255100 0.0 1021463
12:00+16ю71148100 0.0 1019715
15:00+16ю7124825 0.0 1018753
18:00+13ю71553100 0.0 1018556
21:00+13ю61363100 0.2 1017455
3 октября, пн
пн300:00+13ю6136669 0.3 1017399
03:00+13ю61360100 0.3 1017402
06:00+12ю5125930 0.0 1018356
09:00+14ю61260100 0.0 1019504
12:00+13ю51271100 0.7 1020463
15:00+15ю5115886 0.7 1020389
18:00+13ююв4116754 0.0 1022199
21:00+13ю5135983 0.0 1023330
4 октября, вт
вт400:00+11ю41156100 0.0 1024262
03:00+10ююв41055100 0.0 1025231
06:00+9ююв4135334 0.0 1027277
09:00+14ю612415 0.0 1028539
12:00+17ю710355 0.0 1028934
15:00+16ю6103814 0.0 10281091
18:00+12ююв41244100 0.0 1029311
21:00+11ююв5124195 0.0 1030342